When you browse on this site, cookies collect data to enhance your experience and personalize the content and advertising you see.
Visit our Privacy Policy to learn more. By continuing to use the site, you agree to this use of cookies and data.
  • In Romania
  • List of Countries
  • For 7 days
  • Water Temperature
  • Weather Map
  • Weather Widgets
  • user-avatar
    Login

    Hourly Weather Dobrich

    Today, 26 January, Sunday

    Time Temperature Precipitation Wind Pressure Humidity
    00:00 +3°C° 0 mm 3 mps 743 mmHg 60%
    01:00 +3°C° 0 mm 3 mps 743 mmHg 62%
    02:00 +2°C° 0 mm 3 mps 743 mmHg 64%
    03:00 +2°C° 0 mm 3 mps 743 mmHg 68%
    04:00 +2°C° 0 mm 3 mps 743 mmHg 72%
    05:00 +1°C° 0 mm 3 mps 743 mmHg 76%
    06:00 +2°C° 0 mm 2 mps 743 mmHg 78%
    07:00 +2°C° 0 mm 2 mps 743 mmHg 81%
    08:00 +2°C° 0 mm 2 mps 744 mmHg 83%
    09:00 +3°C° 0 mm 2 mps 744 mmHg 75%
    10:00 +6°C° 0 mm 1 mps 745 mmHg 67%
    11:00 +8°C° 0 mm 1 mps 745 mmHg 59%
    12:00 +9°C° 0 mm 1 mps 745 mmHg 56%
    13:00 +10°C° 0 mm 1 mps 744 mmHg 53%
    14:00 +11°C° 0 mm 1 mps 744 mmHg 51%
    15:00 +10°C° 0 mm 1 mps 744 mmHg 55%
    16:00 +9°C° 0 mm 1 mps 744 mmHg 60%
    17:00 +7°C° 0 mm 2 mps 744 mmHg 65%
    18:00 +6°C° 0 mm 2 mps 744 mmHg 68%
    19:00 +5°C° 0 mm 2 mps 744 mmHg 72%
    20:00 +4°C° 0 mm 2 mps 744 mmHg 75%
    21:00 +4°C° 0 mm 2 mps 743 mmHg 76%
    22:00 +4°C° 0 mm 2 mps 743 mmHg 76%
    23:00 +4°C° 0 mm 2 mps 743 mmHg 76%

    Tomorrow, 27 January, Monday

    Time Temperature Precipitation Wind Pressure Humidity
    00:00 +4°C° 0 mm 2 mps 743 mmHg 78%
    01:00 +4°C° 0 mm 2 mps 742 mmHg 80%
    02:00 +3°C° 0 mm 2 mps 742 mmHg 81%
    03:00 +4°C° 0 mm 2 mps 742 mmHg 83%
    04:00 +4°C° 0 mm 2 mps 741 mmHg 86%
    05:00 +4°C° 0 mm 2 mps 741 mmHg 88%
    06:00 +4°C° 0 mm 2 mps 741 mmHg 90%
    07:00 +4°C° 0 mm 3 mps 741 mmHg 92%
    08:00 +4°C° 0 mm 3 mps 741 mmHg 94%
    09:00 +5°C° 0 mm 3 mps 741 mmHg 92%
    10:00 +7°C° 0 mm 3 mps 741 mmHg 89%
    11:00 +7°C° 0 mm 4 mps 741 mmHg 87%
    12:00 +8°C° 0 mm 4 mps 740 mmHg 84%
    13:00 +8°C° 0 mm 4 mps 740 mmHg 82%
    14:00 +10°C° 0 mm 4 mps 739 mmHg 79%
    15:00 +9°C° 0.1 mm 3 mps 739 mmHg 83%
    16:00 +9°C° 0.1 mm 3 mps 738 mmHg 87%
    17:00 +8°C° 0.1 mm 2 mps 738 mmHg 91%
    18:00 +7°C° 2.9 mm 3 mps 737 mmHg 92%
    19:00 +7°C° 2.9 mm 3 mps 737 mmHg 94%
    20:00 +5°C° 2.9 mm 3 mps 737 mmHg 95%
    21:00 +5°C° 3.2 mm 4 mps 737 mmHg 94%
    22:00 +4°C° 3.2 mm 4 mps 737 mmHg 94%
    23:00 +3°C° 3.2 mm 5 mps 737 mmHg 93%

    Day after tomorrow, 28 January, Tuesday

    Time Temperature Precipitation Wind Pressure Humidity
    00:00 +3°C° 0.2 mm 6 mps 736 mmHg 91%
    01:00 +3°C° 0.2 mm 6 mps 736 mmHg 89%
    02:00 +2°C° 0.2 mm 7 mps 735 mmHg 87%
    03:00 +2°C° 0 mm 7 mps 735 mmHg 87%
    04:00 +2°C° 0 mm 6 mps 735 mmHg 86%
    05:00 +2°C° 0 mm 6 mps 735 mmHg 86%
    06:00 +2°C° 0 mm 6 mps 735 mmHg 87%
    07:00 +3°C° 0 mm 6 mps 736 mmHg 87%
    08:00 +3°C° 0 mm 6 mps 736 mmHg 87%
    09:00 +3°C° 0 mm 5 mps 736 mmHg 86%
    10:00 +5°C° 0 mm 5 mps 736 mmHg 84%
    11:00 +5°C° 0 mm 5 mps 736 mmHg 82%
    12:00 +6°C° 0 mm 5 mps 736 mmHg 76%
    13:00 +7°C° 0 mm 5 mps 736 mmHg 70%
    14:00 +10°C° 0 mm 4 mps 736 mmHg 64%
    15:00 +8°C° 0 mm 4 mps 735 mmHg 67%
    16:00 +8°C° 0 mm 3 mps 735 mmHg 69%
    17:00 +8°C° 0 mm 2 mps 735 mmHg 71%
    18:00 +7°C° 0 mm 3 mps 735 mmHg 72%
    19:00 +7°C° 0 mm 3 mps 735 mmHg 74%
    20:00 +5°C° 0 mm 3 mps 735 mmHg 76%
    21:00 +5°C° 0 mm 3 mps 735 mmHg 77%
    22:00 +5°C° 0 mm 3 mps 734 mmHg 78%
    23:00 +5°C° 0 mm 3 mps 734 mmHg 80%

    29 January, Wednesday

    Time Temperature Precipitation Wind Pressure Humidity
    00:00 +4°C° 0 mm 3 mps 734 mmHg 82%
    01:00 +4°C° 0 mm 3 mps 733 mmHg 84%
    02:00 +4°C° 0 mm 3 mps 733 mmHg 87%
    03:00 +4°C° 0 mm 3 mps 732 mmHg 88%
    04:00 +4°C° 0 mm 3 mps 731 mmHg 89%
    05:00 +3°C° 0 mm 3 mps 731 mmHg 90%
    06:00 +3°C° 0 mm 3 mps 731 mmHg 90%
    07:00 +3°C° 0 mm 4 mps 730 mmHg 89%
    08:00 +3°C° 0 mm 4 mps 730 mmHg 89%
    09:00 +3°C° 0 mm 5 mps 730 mmHg 84%
    10:00 +4°C° 0 mm 7 mps 730 mmHg 80%
    11:00 +5°C° 0 mm 9 mps 731 mmHg 75%
    12:00 +6°C° 0 mm 10 mps 731 mmHg 65%
    13:00 +6°C° 0 mm 10 mps 731 mmHg 55%
    14:00 +6°C° 0 mm 11 mps 731 mmHg 45%
    15:00 +6°C° 0 mm 10 mps 732 mmHg 45%
    16:00 +5°C° 0 mm 8 mps 732 mmHg 45%
    17:00 +4°C° 0 mm 7 mps 733 mmHg 44%
    18:00 +3°C° 0 mm 7 mps 733 mmHg 49%
    19:00 +3°C° 0 mm 6 mps 734 mmHg 53%
    20:00 +2°C° 0 mm 6 mps 734 mmHg 57%
    21:00 +2°C° 0 mm 5 mps 734 mmHg 57%
    22:00 +1°C° 0 mm 4 mps 735 mmHg 56%
    23:00 +2°C° 0 mm 3 mps 735 mmHg 56%

    30 January, Thursday

    Time Temperature Precipitation Wind Pressure Humidity
    00:00 +2°C° 0 mm 3 mps 734 mmHg 54%
    01:00 +2°C° 0 mm 3 mps 734 mmHg 52%
    02:00 +2°C° 0 mm 2 mps 734 mmHg 50%
    03:00 +1°C° 0 mm 3 mps 734 mmHg 53%
    04:00 +1°C° 0 mm 3 mps 734 mmHg 56%
    05:00 0°C° 0 mm 4 mps 734 mmHg 59%
    06:00 0°C° 0 mm 5 mps 734 mmHg 63%
    07:00 -1°C° 0 mm 6 mps 734 mmHg 68%
    08:00 -1°C° 0 mm 7 mps 735 mmHg 72%
    09:00 0°C° 0 mm 7 mps 735 mmHg 66%
    10:00 +2°C° 0 mm 7 mps 735 mmHg 60%
    11:00 +3°C° 0 mm 7 mps 736 mmHg 54%
    12:00 +4°C° 0 mm 7 mps 736 mmHg 51%
    13:00 +4°C° 0 mm 7 mps 736 mmHg 48%
    14:00 +5°C° 0 mm 7 mps 736 mmHg 45%
    15:00 +4°C° 0 mm 6 mps 736 mmHg 48%
    16:00 +3°C° 0 mm 5 mps 736 mmHg 51%
    17:00 +4°C° 0 mm 4 mps 736 mmHg 54%
    18:00 +3°C° 0 mm 4 mps 736 mmHg 57%
    19:00 +1°C° 0 mm 4 mps 737 mmHg 59%
    20:00 +1°C° 0 mm 4 mps 737 mmHg 61%
    21:00 0°C° 0 mm 4 mps 737 mmHg 63%
    22:00 0°C° 0 mm 4 mps 738 mmHg 65%
    23:00 -1°C° 0 mm 4 mps 738 mmHg 67%

    31 January, Friday

    Time Temperature Precipitation Wind Pressure Humidity
    00:00 -1°C° 0 mm 4 mps 738 mmHg 68%
    01:00 -1°C° 0 mm 4 mps 739 mmHg 70%
    02:00 -2°C° 0 mm 4 mps 739 mmHg 71%
    03:00 -2°C° 0 mm 4 mps 739 mmHg 73%
    04:00 -2°C° 0 mm 4 mps 739 mmHg 74%
    05:00 -3°C° 0 mm 4 mps 739 mmHg 76%
    06:00 -3°C° 0 mm 4 mps 740 mmHg 77%
    07:00 -3°C° 0 mm 4 mps 740 mmHg 78%
    08:00 -3°C° 0 mm 4 mps 740 mmHg 79%
    09:00 -1°C° 0 mm 4 mps 741 mmHg 72%
    10:00 0°C° 0 mm 4 mps 741 mmHg 64%
    11:00 +2°C° 0 mm 5 mps 742 mmHg 57%
    12:00 +3°C° 0 mm 4 mps 741 mmHg 54%
    13:00 +4°C° 0 mm 4 mps 741 mmHg 51%
    14:00 +5°C° 0 mm 4 mps 741 mmHg 48%
    15:00 +4°C° 0 mm 4 mps 741 mmHg 51%
    16:00 +3°C° 0 mm 3 mps 741 mmHg 54%
    17:00 +4°C° 0 mm 2 mps 741 mmHg 57%
    18:00 +3°C° 0 mm 2 mps 741 mmHg 60%
    19:00 +2°C° 0 mm 2 mps 741 mmHg 62%
    20:00 +2°C° 0 mm 2 mps 741 mmHg 65%
    21:00 +2°C° 0 mm 2 mps 741 mmHg 66%
    22:00 +2°C° 0 mm 2 mps 741 mmHg 67%
    23:00 +1°C° 0 mm 2 mps 740 mmHg 68%
    Show more